1484060400.72,29890,6.44,72330.0,-18.21,-49.47,-49.67,0,*62
1484060401.96,29891,6.44,72328.0,-18.21,-49.47,-49.75,0,*60
1484060403.22,29892,6.44,72324.3,-18.19,-49.47,-49.75,0,*68
1484060404.5,29893,6.44,72328.0,-18.19,-49.47,-49.61,0,*6C
1484060405.74,29894,6.44,72324.5,-18.21,-49.47,-49.75,0,*65
1484060406.99,29895,6.44,72328.0,-18.21,-49.47,-49.89,0,*67
1484060408.22,29896,6.44,72326.0,-18.21,-49.61,-49.75,0,*63
1484060409.49,29897,6.44,72328.8,-18.19,-49.61,-49.89,0,*6A
1484060410.75,29898,6.44,72328.8,-18.19,-49.61,-49.75,0,*66
1484060411.99,29899,6.44,72330.0,-18.21,-49.61,-49.89,0,*6F
1484060413.25,29900,6.44,72330.0,-18.19,-49.61,-49.89,0,*65
1484060414.49,29901,6.44,72326.8,-18.21,-49.39,-49.67,0,*62
1484060415.76,29902,6.44,72328.3,-18.19,-49.47,-49.75,0,*60
1484060417.02,29903,6.44,72326.0,-18.21,-49.39,-49.61,0,*66
1484060418.26,29904,6.44,72326.8,-18.21,-49.47,-49.67,0,*6E
1484060419.53,29905,6.5,72330.3,-18.21,-49.39,-49.61,0,*60
1484060420.77,29906,6.44,72324.5,-18.21,-49.39,-49.75,0,*66
1484060422.0,29907,6.44,72324.5,-18.21,-49.61,-49.67,0,*69
1484060423.24,29908,6.44,72322.5,-18.21,-49.39,-49.67,0,*6B
1484060424.5,29909,6.44,72326.0,-18.19,-49.25,-49.61,0,*6A
1484060425.77,29910,6.44,72326.5,-18.21,-49.39,-49.61,0,*64
1484060427.03,29911,6.44,72328.0,-18.19,-49.39,-49.67,0,*68
1484060428.3,29912,6.44,72330.5,-18.21,-49.19,-49.61,0,*64
1484060429.53,29913,6.44,72324.3,-18.21,-48.97,-49.47,0,*66
1484060430.79,29914,6.44,72330.0,-18.19,-49.25,-49.47,0,*62
1484060432.08,29915,6.44,72328.5,-18.19,-49.19,-49.61,0,*68
1484060433.35,29916,6.44,72330.3,-18.21,-49.19,-49.61,0,*60
1484060434.61,29917,6.44,72328.5,-18.19,-49.25,-49.61,0,*65
1484060435.85,29918,6.44,72330.0,-18.21,-49.39,-49.75,0,*69
1484060437.09,29919,6.44,72328.5,-18.21,-49.39,-49.67,0,*6B
1484060438.33,29920,6.44,72328.0,-18.21,-49.61,-49.67,0,*6C
1484060439.56,29921,6.44,72328.3,-18.21,-49.25,-49.61,0,*6B
1484060440.77,29922,6.44,72330.0,-18.21,-49.25,-49.67,0,*6E
1484060442.02,29923,6.44,72328.8,-18.21,-49.61,-49.97,0,*60
1484060443.26,29924,6.44,72328.3,-18.21,-49.47,-49.75,0,*6F
1484060444.47,29925,6.44,72328.5,-18.21,-49.25,-49.67,0,*69
1484060445.7,29926,6.44,72328.5,-18.21,-49.47,-49.75,0,*6D
1484060446.93,29927,6.44,72328.5,-18.21,-49.67,-49.89,0,*6D
1484060448.19,29928,6.44,72326.3,-18.21,-49.47,-49.61,0,*66
1484060449.45,29929,6.44,72328.5,-18.19,-49.47,-49.75,0,*69
1484060450.69,29930,6.44,72330.0,-18.21,-49.47,-49.75,0,*6A
1484060451.93,29931,6.44,72330.3,-18.21,-49.61,-49.75,0,*6F
1484060453.17,29932,6.44,72328.8,-18.21,-49.61,-49.75,0,*6C
1484060454.4,29933,6.44,72330.0,-18.21,-49.61,-49.75,0,*6D
1484060455.65,29934,6.44,72328.3,-18.23,-49.75,-49.97,0,*61
1484060456.91,29935,6.44,72330.8,-18.23,-49.67,-49.97,0,*63
1484060458.16,29936,6.44,72332.3,-18.23,-49.75,-49.97,0,*63
1484060459.41,29937,6.44,72330.8,-18.23,-49.67,-49.97,0,*61
1484060460.66,29938,6.44,72330.0,-18.23,-49.75,-49.97,0,*6D
1484060461.94,29939,6.44,72328.3,-18.27,-49.97,-50.17,0,*64
1484060463.19,29940,6.44,72328.5,-18.23,-49.75,-49.97,0,*62
1484060464.47,29941,6.44,72326.3,-18.23,-49.53,-49.81,0,*60
1484060465.72,29942,6.44,72328.8,-18.23,-49.67,-49.97,0,*63
1484060466.97,29943,6.44,72326.0,-18.23,-49.67,-49.97,0,*62
1484060468.25,29944,6.44,72322.8,-18.27,-49.53,-49.81,0,*61
1484060469.51,29945,6.44,72324.0,-18.27,-49.47,-49.75,0,*6E
1484060470.75,29946,6.5,72324.3,-18.23,-49.25,-49.67,0,*6E
1484060472.03,29947,6.44,72326.0,-18.27,-49.53,-49.97,0,*65
1484060473.28,29948,6.5,72330.5,-18.23,-49.67,-49.97,0,*69
1484060474.57,29949,6.44,72328.5,-18.27,-49.11,-49.53,0,*65
1484060475.84,29950,6.44,72324.0,-18.27,-49.33,-49.53,0,*6D
1484060477.08,29951,6.44,72328.5,-18.23,-49.33,-49.67,0,*6F
1484060478.35,29952,6.44,72326.8,-18.23,-49.33,-49.53,0,*6B
1484060479.64,29953,6.44,72326.0,-18.23,-49.11,-49.53,0,*6A
1484060480.9,29954,6.44,72328.0,-18.23,-49.25,-49.53,0,*6A
1484060482.17,29955,6.44,72324.8,-18.23,-49.05,-49.47,0,*6C
1484060483.42,29956,6.44,72324.3,-18.23,-49.05,-49.33,0,*6C
1484060484.69,29957,6.44,72326.8,-18.23,-49.05,-49.47,0,*6E
1484060485.95,29958,6.44,72324.0,-18.23,-49.25,-49.53,0,*66
1484060487.19,29959,6.44,72326.8,-18.23,-49.33,-49.67,0,*67
1484060488.45,29960,6.44,72328.8,-18.23,-49.67,-49.81,0,*64
1484060489.7,29961,6.44,72328.5,-18.23,-49.67,-49.97,0,*62
1484060490.95,29962,6.44,72334.0,-18.23,-49.67,-49.97,0,*61
1484060492.2,29963,6.44,72328.5,-18.23,-49.75,-49.81,0,*64
1484060493.46,29964,6.44,72332.3,-18.23,-49.67,-49.97,0,*67
1484060494.67,29965,6.44,72332.0,-18.21,-49.67,-49.75,0,*68
1484060495.9,29966,6.44,72328.0,-18.21,-49.67,-49.97,0,*67
1484060497.13,29967,6.5,72332.5,-18.21,-49.67,-49.97,0,*66
1484060498.4,29968,6.44,72328.5,-18.23,-49.81,-50.03,0,*66
1484060499.66,29969,6.44,72332.0,-18.23,-49.75,-49.81,0,*6E
1484060500.93,29970,6.44,72334.3,-18.23,-49.81,-50.17,0,*6A
1484060502.21,29971,6.44,72328.0,-18.23,-49.81,-50.17,0,*6B
1484060503.49,29972,6.44,72326.3,-18.23,-49.53,-49.97,0,*67
1484060504.73,29973,6.44,72328.8,-18.23,-49.67,-49.75,0,*6D
1484060505.97,29974,6.5,72332.3,-18.27,-49.25,-49.67,0,*6B
1484060507.24,29975,6.44,72328.3,-18.23,-49.53,-49.97,0,*60
1484060508.49,29976,6.44,72326.5,-18.27,-49.75,-49.97,0,*63
1484060509.75,29977,6.44,72326.8,-18.27,-49.75,-49.81,0,*65
1484060510.99,29978,6.44,72326.8,-18.27,-49.33,-49.67,0,*60
1484060512.28,29979,6.44,72324.5,-18.23,-49.11,-49.47,0,*67
1484060513.57,29980,6.44,72326.3,-18.27,-49.11,-49.53,0,*60
1484060514.81,29981,6.44,72328.8,-18.27,-49.33,-49.67,0,*66
1484060516.05,29982,6.5,72328.8,-18.27,-49.25,-49.67,0,*62
1484060517.29,29983,6.44,72328.8,-18.23,-49.33,-49.67,0,*60
1484060518.58,29984,6.44,72326.8,-18.23,-49.11,-49.53,0,*60
1484060519.88,29985,6.44,72330.3,-18.23,-49.11,-49.47,0,*64
1484060521.17,29986,6.44,72330.5,-18.23,-49.11,-49.53,0,*62
1484060522.43,29987,6.44,72328.5,-18.23,-49.25,-49.53,0,*64
1484060523.67,29988,6.5,72332.3,-18.23,-49.33,-49.67,0,*6B
1484060524.92,29989,6.44,72328.0,-18.23,-49.33,-49.75,0,*69
1484060526.16,29990,6.44,72330.3,-18.23,-49.33,-49.75,0,*61
1484060527.43,29991,6.44,72330.0,-18.23,-49.53,-49.75,0,*66
1484060528.66,29992,6.44,72326.8,-18.21,-49.25,-49.61,0,*63
1484060529.93,29993,6.44,72328.0,-18.21,-49.19,-49.61,0,*6D
1484060531.17,29994,6.44,72326.3,-18.21,-49.39,-49.67,0,*6E
1484060532.44,29995,6.44,72330.8,-18.27,-49.53,-49.81,0,*6D
1484060533.7,29996,6.44,72328.5,-18.23,-49.75,-49.97,0,*69
1484060534.95,29997,6.44,72328.5,-18.27,-49.75,-49.97,0,*6C
1484060536.2,29998,6.44,72334.8,-18.23,-49.67,-49.81,0,*63
1484060537.45,29999,6.44,72334.0,-18.23,-49.75,-49.97,0,*66
1484060538.73,30000,6.5,72332.5,-18.23,-49.75,-50.03,0,*62
1484060539.98,30001,6.44,72326.8,-18.23,-49.75,-49.97,0,*66
1484060541.26,30002,6.44,72324.3,-18.27,-49.81,-50.03,0,*6F
1484060542.54,30003,6.44,72328.8,-18.27,-49.81,-50.17,0,*6B
1484060543.81,30004,6.44,72324.5,-18.23,-49.81,-50.17,0,*68
1484060545.06,30005,6.44,72330.8,-18.23,-49.67,-49.75,0,*6D
1484060546.31,30006,6.44,72330.5,-18.23,-49.67,-49.81,0,*65
1484060547.56,30007,6.44,72328.8,-18.23,-49.75,-49.97,0,*60
1484060548.82,30008,6.44,72334.0,-18.23,-49.67,-49.97,0,*6C
1484060550.09,30009,6.44,72332.3,-18.27,-49.75,-50.03,0,*6F
1484060551.34,30010,6.44,72330.8,-18.27,-49.75,-49.97,0,*62
1484060552.62,30011,6.44,72330.0,-18.27,-49.53,-49.81,0,*60
1484060553.86,30012,6.44,72326.8,-18.29,-49.61,-49.89,0,*64
1484060555.11,30013,6.44,72326.3,-18.27,-49.67,-49.97,0,*62
1484060556.36,30014,6.5,72330.8,-18.27,-49.67,-49.81,0,*62
1484060557.61,30015,6.44,72324.8,-18.23,-49.75,-49.97,0,*63
1484060558.86,30016,6.44,72326.8,-18.27,-49.75,-49.97,0,*64
1484060560.12,30017,6.44,72328.5,-18.27,-49.75,-49.97,0,*65
1484060561.37,30018,6.44,72328.3,-18.27,-49.67,-49.81,0,*6E
1484060562.64,30019,6.44,72322.8,-18.27,-49.53,-49.81,0,*68
1484060563.91,30020,6.44,72326.5,-18.27,-49.53,-49.75,0,*69
1484060565.17,30021,6.5,72328.0,-18.27,-49.47,-49.67,0,*6E
1484060566.44,30022,6.44,72324.0,-18.27,-49.53,-49.75,0,*6B
1484060567.68,30023,6.44,72324.5,-18.27,-49.33,-49.67,0,*6F
1484060568.94,30024,6.44,72322.8,-18.27,-49.47,-49.67,0,*6B
1484060570.24,30025,6.44,72326.8,-18.27,-49.11,-49.47,0,*6B
1484060571.5,30026,6.44,72326.0,-18.27,-49.25,-49.53,0,*6A
1484060572.75,30027,6.44,72324.8,-18.27,-49.67,-49.81,0,*62
1484060574.0,30028,6.44,72324.0,-18.29,-49.53,-49.81,0,*64
1484060575.24,30029,6.44,72326.0,-18.29,-49.61,-49.89,0,*6C
1484060576.52,30030,6.44,72326.0,-18.27,-49.53,-49.81,0,*63
1484060577.79,30031,6.44,72322.8,-18.27,-49.53,-49.81,0,*62
1484060579.06,30032,6.44,72326.5,-18.27,-49.47,-49.75,0,*6F
1484060580.33,30033,6.44,72328.5,-18.27,-49.53,-49.97,0,*67
1484060581.58,30034,6.44,72330.8,-18.27,-49.67,-49.81,0,*60
1484060582.85,30035,6.44,72328.5,-18.29,-49.61,-50.03,0,*6B
1484060584.1,30036,6.44,72330.0,-18.29,-49.75,-50.03,0,*6D
1484060585.35,30037,6.44,72326.8,-18.29,-49.53,-49.81,0,*6A
1484060586.57,30038,6.44,72328.5,-18.29,-49.81,-49.89,0,*62
1484060587.81,30039,6.44,72328.3,-18.29,-49.75,-50.11,0,*61
1484060589.06,30040,6.44,72326.8,-18.29,-49.81,-50.11,0,*64
1484060590.3,30041,6.44,72324.8,-18.29,-49.81,-50.11,0,*65
1484060591.55,30042,6.44,72322.8,-18.29,-49.75,-50.03,0,*6E
1484060592.78,30043,6.44,72322.3,-18.29,-49.75,-49.89,0,*65
1484060594.02,30044,6.44,72320.5,-18.29,-49.53,-49.81,0,*6E
1484060595.26,30045,6.44,72322.3,-18.29,-49.61,-49.89,0,*66
1484060596.49,30046,6.44,72318.0,-18.29,-49.81,-49.89,0,*6B
1484060597.71,30047,6.44,72318.5,-18.29,-49.75,-49.89,0,*61
1484060598.96,30048,6.44,72320.3,-18.29,-49.89,-50.11,0,*64
1484060600.18,30049,6.5,72326.3,-18.29,-49.75,-49.81,0,*67
1484060601.42,30050,6.44,72320.8,-18.29,-49.61,-49.89,0,*62
1484060602.67,30051,6.44,72324.0,-18.29,-49.39,-49.75,0,*6D
1484060603.91,30052,6.44,72326.3,-18.29,-49.33,-49.53,0,*60
1484060605.19,30053,6.5,72322.5,-18.27,-49.47,-49.53,0,*6C
1484060606.47,30054,6.44,72320.5,-18.31,-49.53,-49.81,0,*66
1484060607.7,30055,6.44,72324.0,-18.29,-49.61,-49.75,0,*64
1484060608.94,30056,6.5,72326.0,-18.29,-49.33,-49.61,0,*65
1484060610.16,30057,6.44,72320.3,-18.29,-49.33,-49.75,0,*61
1484060611.43,30058,6.44,72322.5,-18.29,-49.11,-49.53,0,*6A
1484060612.7,30059,6.5,72326.8,-18.29,-49.11,-49.39,0,*67
1484060613.96,30060,6.44,72324.5,-18.29,-49.19,-49.61,0,*68
1484060615.23,30061,6.44,72330.0,-18.27,-49.33,-49.53,0,*6E
1484060616.51,30062,6.44,72330.3,-18.23,-49.53,-49.81,0,*60
1484060617.76,30063,6.44,72330.3,-18.27,-49.67,-49.81,0,*62
1484060619.01,30064,6.44,72330.0,-18.27,-49.67,-49.81,0,*65
1484060620.29,30065,6.44,72330.0,-18.27,-49.97,-50.25,0,*6D
1484060621.56,30066,6.44,72332.0,-18.27,-49.75,-50.03,0,*66
1484060622.81,30067,6.44,72328.8,-18.27,-49.75,-49.81,0,*65
1484060624.06,30068,6.44,72332.0,-18.27,-49.75,-49.97,0,*6D
1484060625.32,30069,6.5,72332.8,-18.27,-49.75,-49.81,0,*6B
1484060626.56,30070,6.44,72326.8,-18.27,-49.67,-49.75,0,*6B
1484060627.78,30071,6.44,72326.8,-18.29,-49.75,-49.81,0,*6C
1484060629.03,30072,6.44,72324.5,-18.29,-49.81,-50.11,0,*65
1484060630.28,30073,6.44,72326.3,-18.29,-49.61,-49.81,0,*6B
1484060631.55,30074,6.44,72324.8,-18.31,-49.39,-49.81,0,*68
1484060632.79,30075,6.44,72324.0,-18.29,-49.33,-49.61,0,*64
1484060634.06,30076,6.44,72326.8,-18.27,-49.33,-49.53,0,*68
1484060635.3,30077,6.44,72326.5,-18.29,-49.61,-49.81,0,*6F
1484060636.58,30078,6.44,72326.3,-18.27,-49.67,-50.03,0,*6A
1484060637.84,30079,6.44,72324.5,-18.29,-49.61,-50.03,0,*63
1484060639.07,30080,6.44,72324.3,-18.29,-49.75,-49.81,0,*62
1484060640.33,30081,6.5,72330.3,-18.29,-49.19,-49.61,0,*67
1484060641.57,30082,6.44,72330.5,-18.29,-49.33,-49.53,0,*6D
1484060642.84,30083,6.5,72330.3,-18.29,-49.53,-49.61,0,*6B
1484060644.08,30084,6.44,72330.8,-18.29,-49.53,-49.81,0,*62
1484060645.33,30085,6.44,72326.3,-18.29,-49.61,-49.89,0,*6A
1484060646.58,30086,6.44,72330.8,-18.29,-49.81,-50.03,0,*6D
1484060647.83,30087,6.44,72328.5,-18.27,-49.75,-49.81,0,*6B
1484060649.1,30088,6.44,72330.0,-18.27,-49.53,-49.81,0,*60
1484060650.38,30089,6.5,72332.0,-18.27,-49.81,-50.17,0,*69
1484060651.63,30090,6.44,72328.8,-18.29,-49.89,-50.03,0,*62
1484060652.88,30091,6.44,72330.8,-18.29,-49.89,-50.25,0,*67
1484060654.13,30092,6.5,72332.5,-18.29,-49.89,-50.25,0,*64
1484060655.4,30093,6.44,72332.3,-18.31,-49.89,-50.11,0,*6B
1484060656.67,30094,6.44,72328.3,-18.31,-49.89,-50.25,0,*6B
1484060657.92,30095,6.44,72330.8,-18.29,-49.89,-50.25,0,*63
1484060659.17,30096,6.44,72328.3,-18.29,-49.81,-50.11,0,*6F
1484060660.42,30097,6.44,72330.5,-18.29,-49.75,-50.03,0,*66
1484060661.66,30098,6.5,72328.8,-18.31,-49.75,-49.89,0,*6A
1484060662.94,30099,6.44,72326.8,-18.31,-49.81,-50.03,0,*6A
1484060664.19,30100,6.44,72326.0,-18.29,-49.81,-50.03,0,*62
1484060665.44,30101,6.44,72328.5,-18.29,-49.81,-50.03,0,*63
1484060666.74,30102,6.5,72328.3,-18.31,-50.03,-50.11,0,*68
1484060667.96,30103,6.5,72330.5,-18.29,-49.75,-49.89,0,*60
1484060669.21,30104,6.44,72326.3,-18.29,-49.81,-50.03,0,*66
1484060670.49,30105,6.44,72326.3,-18.31,-49.89,-50.25,0,*62
1484060671.79,30106,6.44,72324.8,-18.31,-50.03,-50.25,0,*6B
1484060673.04,30107,6.44,72320.5,-18.29,-49.81,-50.03,0,*65
1484060674.29,30108,6.44,72320.3,-18.29,-49.81,-50.03,0,*6A
1484060675.6,30109,6.44,72322.3,-18.31,-50.03,-50.33,0,*63
1484060676.87,30110,6.44,72320.0,-18.31,-49.89,-50.11,0,*61
1484060678.17,30111,6.44,72326.3,-18.31,-50.11,-50.33,0,*69
1484060679.47,30112,6.44,72324.8,-18.31,-50.03,-50.25,0,*6E
1484060680.75,30113,6.44,72324.8,-18.31,-49.89,-50.33,0,*62
1484060682.04,30114,6.44,72324.3,-18.31,-50.03,-50.11,0,*6F
1484060683.32,30115,6.44,72328.3,-18.31,-49.89,-50.11,0,*64
1484060684.62,30116,6.44,72332.3,-18.31,-50.03,-50.25,0,*6A
1484060685.89,30117,6.44,72330.8,-18.31,-49.81,-50.25,0,*69
1484060687.16,30118,6.44,72330.3,-18.31,-49.89,-50.11,0,*69
1484060688.43,30119,6.5,72328.3,-18.31,-49.75,-50.03,0,*68
1484060689.71,30120,6.44,72322.3,-18.31,-49.89,-50.03,0,*61
1484060690.98,30121,6.44,72324.0,-18.31,-49.89,-50.03,0,*60
1484060692.23,30122,6.44,72322.5,-18.33,-49.89,-50.17,0,*64
1484060693.53,30123,6.5,72326.5,-18.31,-50.03,-50.25,0,*6C
1484060694.8,30124,6.44,72322.0,-18.31,-49.75,-50.03,0,*66
1484060696.05,30125,6.44,72324.8,-18.31,-49.75,-49.89,0,*6D
1484060697.29,30126,6.44,72320.5,-18.33,-49.61,-49.97,0,*66
1484060698.54,30127,6.5,72324.0,-18.33,-49.47,-49.81,0,*64
1484060699.83,30128,6.44,72326.0,-18.31,-49.39,-49.61,0,*6E
1484060701.09,30129,6.44,72324.0,-18.31,-49.33,-49.61,0,*65
1484060702.36,30130,6.44,72324.8,-18.31,-49.53,-49.81,0,*65
1484060703.63,30131,6.44,72320.3,-18.31,-49.75,-50.03,0,*62
1484060704.91,30132,6.44,72326.3,-18.31,-49.81,-50.03,0,*6A
1484060706.18,30133,6.44,72324.0,-18.31,-49.75,-50.03,0,*60
1484060707.48,30134,6.44,72328.5,-18.31,-50.03,-50.11,0,*6D
1484060708.75,30135,6.44,72328.0,-18.31,-49.75,-50.03,0,*66
1484060710.0,30136,6.44,72328.0,-18.33,-49.81,-50.17,0,*69
1484060711.22,30137,6.44,72326.8,-18.33,-49.81,-49.97,0,*68
1484060712.5,30138,6.44,72330.0,-18.31,-49.81,-50.11,0,*63
1484060713.79,30139,6.44,72332.3,-18.31,-50.03,-50.11,0,*60
1484060715.09,30140,6.44,72328.3,-18.31,-50.03,-50.25,0,*69
1484060716.36,30141,6.5,72332.5,-18.31,-49.89,-50.11,0,*65
1484060717.61,30142,6.44,72328.8,-18.33,-49.89,-50.11,0,*64
1484060718.87,30143,6.44,72326.8,-18.31,-49.61,-49.81,0,*60
1484060720.12,30144,6.44,72324.3,-18.33,-49.81,-50.11,0,*6A
1484060721.37,30145,6.44,72326.8,-18.33,-49.97,-50.17,0,*6A
1484060722.64,30146,6.44,72326.8,-18.31,-49.89,-50.25,0,*65
1484060723.94,30147,6.44,72324.5,-18.31,-50.03,-50.25,0,*6E
1484060725.21,30148,6.44,72326.8,-18.31,-49.89,-50.11,0,*6C
1484060726.46,30149,6.5,72330.0,-18.33,-49.97,-50.17,0,*66
1484060727.72,30150,6.44,72328.8,-18.31,-49.53,-49.75,0,*68
1484060728.97,30151,6.44,72328.8,-18.31,-49.81,-49.89,0,*65
1484060730.25,30152,6.44,72328.5,-18.31,-49.89,-50.03,0,*64
1484060731.52,30153,6.44,72324.8,-18.31,-49.81,-50.03,0,*6D
1484060732.76,30154,6.44,72330.5,-18.33,-49.89,-50.11,0,*63
1484060733.99,30155,6.44,72324.8,-18.33,-49.81,-49.97,0,*6C
1484060735.27,30156,6.5,72326.8,-18.31,-49.81,-50.03,0,*68
1484060736.51,30157,6.44,72324.3,-18.31,-49.75,-49.89,0,*68
1484060737.74,30158,6.5,72326.8,-18.33,-49.67,-49.81,0,*6E
1484060739.01,30159,6.44,72324.5,-18.31,-49.75,-50.03,0,*6C
1484060740.26,30160,6.44,72328.3,-18.33,-49.97,-50.33,0,*6B
1484060741.56,30161,6.44,72328.0,-18.31,-50.11,-50.25,0,*69
1484060742.83,30162,6.5,72324.8,-18.33,-50.11,-50.33,0,*6F
1484060744.08,30163,6.44,72322.3,-18.31,-49.75,-49.89,0,*6F
1484060745.34,30164,6.44,72320.8,-18.31,-49.61,-49.75,0,*6E
1484060746.58,30165,6.5,72326.0,-18.33,-49.61,-49.81,0,*66
1484060747.8,30166,6.44,72326.3,-18.33,-49.67,-49.81,0,*63
1484060749.09,30167,6.44,72328.8,-18.31,-49.53,-49.61,0,*69
1484060750.36,30168,6.5,72332.3,-18.31,-49.61,-49.81,0,*69
1484060751.6,30169,6.44,72330.5,-18.31,-49.81,-49.89,0,*6E
1484060752.85,30170,6.44,72330.0,-18.33,-49.89,-50.11,0,*65
1484060754.12,30171,6.44,72324.8,-18.31,-49.81,-50.03,0,*6D
1484060755.39,30172,6.44,72326.8,-18.31,-49.89,-50.11,0,*65
1484060756.64,30173,6.5,72328.3,-18.33,-49.89,-50.11,0,*66
1484060757.88,30174,6.44,72326.8,-18.33,-49.89,-50.11,0,*61
1484060759.15,30175,6.44,72326.5,-18.33,-50.11,-50.33,0,*69
1484060760.4,30176,6.5,72324.8,-18.33,-49.97,-50.33,0,*6C
1484060761.66,30177,6.44,72322.5,-18.35,-49.89,-49.97,0,*62
1484060762.91,30178,6.5,72326.3,-18.33,-49.89,-50.33,0,*6D
1484060764.16,30179,6.44,72326.8,-18.33,-49.97,-50.33,0,*63
1484060765.43,30180,6.44,72328.0,-18.33,-50.11,-50.33,0,*63
1484060766.66,30181,6.44,72324.8,-18.33,-49.97,-50.39,0,*6E
1484060767.91,30182,6.44,72326.8,-18.33,-49.97,-50.17,0,*61
1484060769.16,30183,6.44,72324.0,-18.33,-49.97,-50.17,0,*60
1484060770.4,30184,6.5,72326.3,-18.33,-49.89,-50.17,0,*68
1484060771.67,30185,6.44,72324.0,-18.35,-49.89,-50.11,0,*69
1484060772.95,30186,6.44,72322.5,-18.35,-49.97,-50.17,0,*63
1484060774.23,30187,6.44,72322.3,-18.35,-49.89,-50.33,0,*6B
1484060775.51,30188,6.44,72320.0,-18.35,-49.89,-50.17,0,*62
1484060776.78,30189,6.5,72322.8,-18.35,-49.89,-50.11,0,*65
1484060778.02,30190,6.44,72322.8,-18.33,-49.97,-50.11,0,*64
1484060779.25,30191,6.5,72326.8,-18.33,-49.81,-49.97,0,*64
1484060780.49,30192,6.44,72322.8,-18.33,-49.61,-49.97,0,*69
1484060781.73,30193,6.44,72320.0,-18.35,-49.67,-49.67,0,*67
1484060782.98,30194,6.44,72322.0,-18.33,-49.47,-49.81,0,*6C
1484060784.24,30195,6.5,72324.8,-18.31,-49.75,-50.11,0,*6F
1484060785.46,30196,6.44,72322.0,-18.33,-49.67,-49.89,0,*64
1484060786.73,30197,6.44,72322.8,-18.31,-49.61,-49.89,0,*61
1484060787.97,30198,6.44,72322.5,-18.33,-49.61,-49.97,0,*63
1484060789.21,30199,6.44,72322.5,-18.33,-49.61,-49.89,0,*6D
1484060790.43,30200,6.44,72324.0,-18.33,-49.67,-49.81,0,*60
1484060791.69,30201,6.44,72322.5,-18.31,-49.61,-49.89,0,*6D
1484060792.92,30202,6.44,72322.0,-18.33,-49.81,-49.97,0,*6D
1484060794.17,30203,6.44,72322.0,-18.31,-49.81,-49.89,0,*61
1484060795.42,30204,6.44,72322.8,-18.31,-49.81,-49.89,0,*66
1484060796.66,30205,6.5,72322.0,-18.33,-50.17,-50.39,0,*61
1484060797.94,30206,6.44,72326.3,-18.31,-50.11,-50.47,0,*6F
1484060799.2,30207,6.44,72322.3,-18.33,-50.17,-50.53,0,*6F
1484060800.47,30208,6.44,72316.5,-18.33,-50.17,-50.53,0,*60
1484060801.72,30209,6.44,72320.5,-18.33,-50.11,-50.39,0,*6B
1484060802.99,30210,6.5,72326.8,-18.33,-50.11,-50.33,0,*69
1484060804.26,30211,6.5,72324.0,-18.31,-50.11,-50.47,0,*69
1484060805.51,30212,6.44,72324.0,-18.33,-50.17,-50.39,0,*67
1484060806.78,30213,6.44,72324.5,-18.33,-50.11,-50.17,0,*6C
1484060808.02,30214,6.44,72324.3,-18.33,-50.17,-50.39,0,*61
1484060809.29,30215,6.44,72324.0,-18.33,-50.11,-50.53,0,*6A
1484060810.59,30216,6.5,72324.0,-18.39,-50.25,-50.61,0,*65
1484060811.89,30217,6.44,72322.5,-18.35,-50.11,-50.53,0,*6E
1484060813.17,30218,6.5,72324.3,-18.35,-50.17,-50.39,0,*6B
1484060814.42,30219,6.5,72320.8,-18.39,-50.39,-50.47,0,*63
1484060815.69,30220,6.44,72316.0,-18.35,-50.17,-50.67,0,*6B
1484060816.96,30221,6.44,72316.8,-18.39,-50.17,-50.47,0,*64
1484060818.26,30222,6.5,72322.0,-18.35,-50.17,-50.33,0,*68
1484060819.53,30223,6.44,72318.3,-18.39,-50.25,-50.39,0,*6E
1484060820.8,30224,6.44,72320.3,-18.39,-50.25,-50.47,0,*60
1484060822.06,30225,6.44,72322.5,-18.39,-50.25,-50.47,0,*61
1484060823.34,30226,6.44,72322.8,-18.35,-49.97,-50.33,0,*6C
1484060824.65,30227,6.44,72320.5,-18.35,-50.11,-50.33,0,*6B
1484060825.94,30228,6.44,72320.3,-18.39,-50.17,-50.25,0,*69
1484060827.25,30229,6.5,72324.3,-18.39,-50.03,-50.25,0,*6D
1484060828.52,30230,6.5,72326.3,-18.39,-49.97,-50.25,0,*60
1484060829.81,30231,6.5,72324.5,-18.39,-50.03,-50.39,0,*69
1484060831.09,30232,6.44,72322.8,-18.39,-49.97,-50.03,0,*66
1484060832.36,30233,6.44,72322.0,-18.35,-49.89,-50.17,0,*61
1484060833.65,30234,6.5,72324.3,-18.39,-50.03,-50.39,0,*6C
1484060834.94,30235,6.44,72322.5,-18.39,-50.17,-50.25,0,*65
1484060836.21,30236,6.44,72322.5,-18.39,-50.17,-50.47,0,*62
1484060837.49,30237,6.5,72324.3,-18.39,-50.17,-50.39,0,*6A
1484060838.77,30238,6.44,72326.5,-18.39,-50.03,-50.39,0,*60
1484060840.04,30239,6.44,72326.5,-18.39,-50.17,-50.47,0,*6D
1484060841.34,30240,6.44,72324.5,-18.39,-50.17,-50.61,0,*67
1484060842.61,30241,6.44,72324.8,-18.39,-50.17,-50.47,0,*62
1484060843.86,30242,6.44,72324.0,-18.41,-50.33,-50.67,0,*6A
1484060845.13,30243,6.44,72324.0,-18.41,-50.33,-50.53,0,*6C
1484060846.37,30244,6.5,72330.3,-18.41,-50.33,-50.47,0,*6E
1484060847.64,30245,6.44,72326.5,-18.41,-50.33,-50.53,0,*6A
1484060848.91,30246,6.44,72328.0,-18.41,-50.25,-50.53,0,*6E
1484060850.15,30247,6.5,72326.3,-18.41,-50.33,-50.67,0,*6F
1484060851.36,30248,6.5,72326.5,-18.41,-50.47,-50.75,0,*60
1484060852.6,30249,6.5,72324.5,-18.41,-50.25,-50.75,0,*65
1484060853.87,30250,6.5,72326.5,-18.41,-50.25,-50.53,0,*69
1484060855.13,30251,6.5,72324.5,-18.43,-50.25,-50.47,0,*6F
1484060856.34,30252,6.44,72322.5,-18.41,-50.47,-50.67,0,*68
1484060857.61,30253,6.44,72322.5,-18.41,-50.11,-50.53,0,*6D
1484060858.89,30254,6.44,72324.3,-18.43,-50.11,-50.47,0,*6D
1484060860.16,30255,6.44,72324.0,-18.43,-49.81,-50.33,0,*6E
1484060861.41,30256,6.44,72320.8,-18.41,-49.97,-50.25,0,*6F
1484060862.66,30257,6.44,72326.0,-18.41,-50.03,-50.47,0,*6F
1484060863.93,30258,6.5,72324.5,-18.41,-50.11,-50.33,0,*60
1484060865.22,30259,6.44,72322.0,-18.43,-50.25,-50.53,0,*62
1484060866.52,30260,6.5,72322.0,-18.43,-50.33,-50.53,0,*6F
1484060867.81,30261,6.5,72326.3,-18.43,-50.25,-50.53,0,*69
1484060869.07,30262,6.44,72320.3,-18.41,-50.25,-50.53,0,*68
1484060870.34,30263,6.44,72326.0,-18.43,-50.25,-50.47,0,*6E
1484060871.64,30264,6.44,72326.3,-18.43,-50.11,-50.33,0,*6D
1484060872.94,30265,6.44,72328.8,-18.43,-50.11,-50.33,0,*6C
1484060874.18,30266,6.44,72328.3,-18.41,-49.75,-50.03,0,*64
1484060875.44,30267,6.5,72328.5,-18.43,-49.81,-49.97,0,*69
1484060876.72,30268,6.5,72328.8,-18.43,-49.97,-50.03,0,*64
1484060877.99,30269,6.44,72326.0,-18.43,-49.81,-50.11,0,*61
1484060879.22,30270,6.44,72328.3,-18.41,-50.25,-50.47,0,*6E
1484060880.52,30271,6.5,72330.8,-18.43,-50.11,-50.53,0,*6F
1484060881.82,30272,6.44,72324.0,-18.43,-50.11,-50.25,0,*6D
1484060883.09,30273,6.5,72328.0,-18.43,-50.33,-50.47,0,*68
1484060884.36,30274,6.44,72326.5,-18.43,-50.33,-50.67,0,*6D
1484060885.66,30275,6.44,72324.0,-18.43,-50.11,-50.33,0,*6D
1484060886.96,30276,6.44,72320.3,-18.43,-50.11,-50.33,0,*6E
1484060888.23,30277,6.44,72318.5,-18.43,-50.25,-50.47,0,*6B
1484060889.5,30278,6.5,72324.0,-18.43,-50.33,-50.67,0,*61
1484060890.81,30279,6.44,72326.0,-18.43,-50.03,-50.33,0,*62
1484060892.08,30280,6.44,72324.3,-18.43,-49.75,-50.03,0,*6E
1484060893.35,30281,6.44,72324.3,-18.43,-49.75,-50.03,0,*6F
1484060894.65,30282,6.5,72324.8,-18.43,-50.11,-50.33,0,*65
1484060895.95,30283,6.44,72322.3,-18.43,-50.11,-50.53,0,*62
1484060897.25,30284,6.5,72324.3,-18.47,-50.17,-50.53,0,*67
1484060898.54,30285,6.5,72326.8,-18.47,-50.17,-50.53,0,*66
1484060899.83,30286,6.44,72326.0,-18.43,-50.25,-50.33,0,*66
1484060901.11,30287,6.44,72322.0,-18.47,-50.11,-50.39,0,*6E
1484060902.42,30288,6.5,72326.8,-18.47,-50.03,-50.33,0,*68
1484060903.72,30289,6.44,72320.3,-18.47,-50.11,-50.33,0,*6A
1484060905.02,30290,6.44,72320.8,-18.47,-50.33,-50.53,0,*64